Glenwood, MN

2:45 AM CDT on August 28, 2016 (GMT -0500)
Glenwood Municipal

Weather History for KGHW - February, 2013

Change the Weather History Date:

Thursday, February 28, 2013

  Actual Average Record
Temperature  
Mean Temperature 20 °F -  
Max Temperature 26 °F 34 °F 52 °F (1985)
Min Temperature 15 °F 15 °F -33 °F (1962)
Degree Days  
Heating Degree Days 44    
Moisture  
Dew Point 18 °F    
Average Humidity 82    
Maximum Humidity 93    
Minimum Humidity 74    
Precipitation  
Precipitation 0.05 in - - ()
Sea Level Pressure  
Sea Level Pressure 30.17 in    
Wind  
Wind Speed 7 mph (North)    
Max Wind Speed 10 mph    
Max Gust Speed -    
Visibility 10 miles    
Events      
Averages and records for this station are not official NWS values.
T = Trace of Precipitation, MM = Missing Value Source: NWS Daily Summary

Daily Weather History Graph

Daily Weather History Graph

Search for Another Location

Airport or City:

Trip Planner

Search our weather history database for the weather conditions in past years. The results will help you decide how hot, cold, wet, or windy it might be!

Date:

Astronomy

Feb. 28, 2013 Rise Set
Actual Time 7:01 AM CST 6:07 PM CST
Civil Twilight 6:31 AM CST 6:36 PM CST
Nautical Twilight 5:56 AM CST 7:11 PM CST
Astronomical Twilight 5:22 AM CST 7:45 PM CST
Moon 9:49 PM CST 7:59 AM CST
Length of Visible Light 12h 05m
Length of Day
11h 06m
Waning Gibbous, 90% of the Moon is Illuminated
Feb 28
Waning Gibbous
Mar 4
Last Quarter
Mar 11
New
Mar 19
First Quarter
Mar 27
Full

Hourly Weather History & Observations

Time (CST) Temp. Windchill Dew Point Humidity Pressure Visibility Wind Dir Wind Speed Gust Speed Precip Events Conditions
12:14 AM 17.6 °F 5.7 °F 15.8 °F 93% 30.08 in 10.0 mi North 10.4 mph - N/A   Clear
12:53 AM 21.2 °F 12.6 °F 17.6 °F 86% 30.09 in 10.0 mi North 6.9 mph - N/A   Overcast
1:14 AM 21.2 °F 12.6 °F 19.4 °F 93% 30.09 in 10.0 mi North 6.9 mph - N/A   Overcast
1:33 AM 23.0 °F 14.7 °F 19.4 °F 86% 30.09 in 10.0 mi North 6.9 mph - N/A   Overcast
1:53 AM 23.0 °F 15.8 °F 19.4 °F 86% 30.10 in 10.0 mi NNW 5.8 mph - N/A   Overcast
2:13 AM 21.2 °F 13.6 °F 19.4 °F 93% 30.10 in 10.0 mi NW 5.8 mph - N/A   Overcast
2:33 AM 21.2 °F 12.6 °F 19.4 °F 93% 30.11 in 10.0 mi NW 6.9 mph - N/A   Overcast
2:53 AM 21.2 °F 11.7 °F 19.4 °F 93% 30.11 in 10.0 mi NW 8.1 mph - N/A   Overcast
3:13 AM 21.2 °F 13.6 °F 19.4 °F 93% 30.11 in 10.0 mi NW 5.8 mph - N/A   Overcast
3:33 AM 21.2 °F 11.7 °F 19.4 °F 93% 30.11 in 10.0 mi NW 8.1 mph - N/A   Overcast
3:53 AM 21.2 °F 12.6 °F 19.4 °F 93% 30.12 in 10.0 mi NW 6.9 mph - N/A   Overcast
4:13 AM 21.2 °F 12.6 °F 19.4 °F 93% 30.12 in 10.0 mi NW 6.9 mph - N/A   Overcast
4:33 AM 21.2 °F 13.6 °F 19.4 °F 93% 30.12 in 10.0 mi NW 5.8 mph - N/A   Overcast
4:53 AM 23.0 °F 14.7 °F 19.4 °F 86% 30.12 in 10.0 mi NNW 6.9 mph - N/A   Overcast
5:13 AM 23.0 °F 14.7 °F 19.4 °F 86% 30.13 in 10.0 mi NW 6.9 mph - N/A   Overcast
5:33 AM 23.0 °F 13.9 °F 19.4 °F 86% 30.13 in 10.0 mi NW 8.1 mph - N/A   Overcast
5:53 AM 23.0 °F 14.7 °F 19.4 °F 86% 30.14 in 10.0 mi NW 6.9 mph - N/A   Overcast
6:13 AM 23.0 °F 15.8 °F 19.4 °F 86% 30.14 in 10.0 mi NW 5.8 mph - N/A   Overcast
6:34 AM 23.0 °F 15.8 °F 21.2 °F 93% 30.14 in 10.0 mi NNW 5.8 mph - N/A   Overcast
6:53 AM 24.8 °F 15.3 °F 21.2 °F 86% 30.14 in 10.0 mi North 9.2 mph - N/A   Overcast
7:13 AM 24.8 °F 15.3 °F 21.2 °F 86% 30.15 in 10.0 mi North 9.2 mph - N/A   Overcast
7:34 AM 24.8 °F 15.3 °F 21.2 °F 86% 30.15 in 10.0 mi North 9.2 mph - N/A   Overcast
7:53 AM 24.8 °F 16.9 °F 21.2 °F 86% 30.16 in 10.0 mi North 6.9 mph - N/A   Overcast
8:13 AM 24.8 °F 16.1 °F 19.4 °F 80% 30.16 in 10.0 mi North 8.1 mph - N/A   Overcast
8:34 AM 24.8 °F 16.9 °F 19.4 °F 80% 30.16 in 10.0 mi North 6.9 mph - N/A   Overcast
8:53 AM 24.8 °F 16.1 °F 19.4 °F 80% 30.16 in 10.0 mi North 8.1 mph - N/A   Overcast
9:13 AM 24.8 °F 16.9 °F 19.4 °F 80% 30.17 in 10.0 mi North 6.9 mph - N/A   Overcast
9:34 AM 26.6 °F 17.5 °F 19.4 °F 74% 30.17 in 10.0 mi North 9.2 mph - N/A   Overcast
9:53 AM 26.6 °F 20.0 °F 19.4 °F 74% 30.17 in 10.0 mi North 5.8 mph - N/A   Overcast
10:13 AM 26.6 °F 18.2 °F 19.4 °F 74% 30.17 in 10.0 mi North 8.1 mph - N/A   Overcast
10:33 AM 26.6 °F 21.2 °F 19.4 °F 74% 30.18 in 10.0 mi North 4.6 mph - N/A   Overcast
10:53 AM 26.6 °F 18.2 °F 19.4 °F 74% 30.18 in 10.0 mi NNE 8.1 mph - 0.01 in   Overcast
11:13 AM 26.6 °F 18.2 °F 19.4 °F 74% 30.18 in 10.0 mi NNE 8.1 mph - 0.02 in   Overcast
11:33 AM 26.6 °F 19.1 °F 19.4 °F 74% 30.19 in 10.0 mi North 6.9 mph - 0.03 in   Overcast
11:53 AM 26.6 °F 21.2 °F 19.4 °F 74% 30.19 in 10.0 mi North 4.6 mph - 0.03 in   Overcast
12:33 PM 26.6 °F 17.5 °F 19.4 °F 74% 30.18 in 10.0 mi NNE 9.2 mph - N/A   Overcast
12:53 PM 26.6 °F 16.8 °F 19.4 °F 74% 30.18 in 10.0 mi NNE 10.4 mph - N/A   Overcast
1:14 PM 26.6 °F 19.1 °F 19.4 °F 74% 30.18 in 10.0 mi NE 6.9 mph - N/A   Overcast
1:33 PM 26.6 °F 19.1 °F 19.4 °F 74% 30.18 in 10.0 mi NE 6.9 mph - 0.01 in   Overcast
1:53 PM 26.6 °F 20.0 °F 19.4 °F 74% 30.18 in 10.0 mi NNE 5.8 mph - 0.01 in   Overcast
2:14 PM 26.6 °F 21.2 °F 19.4 °F 74% 30.17 in 10.0 mi NE 4.6 mph - N/A   Overcast
2:33 PM 26.6 °F 22.6 °F 19.4 °F 74% 30.17 in 10.0 mi North 3.5 mph - N/A   Overcast
2:53 PM 26.6 °F 21.2 °F 19.4 °F 74% 30.17 in 10.0 mi North 4.6 mph - N/A   Overcast
3:14 PM 26.6 °F 19.1 °F 19.4 °F 74% 30.18 in 10.0 mi NNE 6.9 mph - N/A   Overcast
3:33 PM 26.6 °F 21.2 °F 19.4 °F 74% 30.18 in 10.0 mi North 4.6 mph - N/A   Overcast
3:53 PM 26.6 °F 20.0 °F 19.4 °F 74% 30.18 in 10.0 mi North 5.8 mph - N/A   Overcast
4:14 PM 26.6 °F 21.2 °F 19.4 °F 74% 30.18 in 10.0 mi North 4.6 mph - N/A   Overcast
4:33 PM 26.6 °F 20.0 °F 19.4 °F 74% 30.18 in 10.0 mi North 5.8 mph - N/A   Overcast
4:53 PM 26.6 °F 20.0 °F 19.4 °F 74% 30.19 in 10.0 mi North 5.8 mph - N/A   Overcast
5:14 PM 26.6 °F 21.2 °F 19.4 °F 74% 30.19 in 10.0 mi North 4.6 mph - N/A   Overcast
5:33 PM 24.8 °F 17.9 °F 19.4 °F 80% 30.19 in 10.0 mi North 5.8 mph - N/A   Overcast
5:53 PM 24.8 °F 19.1 °F 19.4 °F 80% 30.20 in 10.0 mi North 4.6 mph - N/A   Overcast
6:13 PM 24.8 °F 19.1 °F 19.4 °F 80% 30.21 in 10.0 mi North 4.6 mph - N/A   Overcast
6:33 PM 24.8 °F 17.9 °F 19.4 °F 80% 30.21 in 10.0 mi North 5.8 mph - N/A   Overcast
6:54 PM 24.8 °F 16.9 °F 19.4 °F 80% 30.22 in 10.0 mi NNE 6.9 mph - N/A   Overcast
7:13 PM 24.8 °F 19.1 °F 19.4 °F 80% 30.22 in 10.0 mi North 4.6 mph - N/A   Overcast
7:33 PM 23.0 °F 17.0 °F 17.6 °F 80% 30.22 in 10.0 mi North 4.6 mph - N/A   Mostly Cloudy
7:54 PM 21.2 °F 14.9 °F 17.6 °F 86% 30.22 in 10.0 mi North 4.6 mph - N/A   Clear
8:13 PM 21.2 °F 14.9 °F 17.6 °F 86% 30.22 in 10.0 mi North 4.6 mph - N/A   Clear
8:33 PM 19.4 °F 11.5 °F 15.8 °F 86% 30.22 in 10.0 mi NNW 5.8 mph - N/A   Clear
8:54 PM 17.6 °F 9.3 °F 14.0 °F 86% 30.23 in 10.0 mi NNW 5.8 mph - N/A   Clear
9:13 PM 19.4 °F 11.5 °F 15.8 °F 86% 30.23 in 10.0 mi NNW 5.8 mph - N/A   Clear
9:33 PM 17.6 °F 9.3 °F 14.0 °F 86% 30.23 in 10.0 mi NNW 5.8 mph - N/A   Clear
9:53 PM 17.6 °F 10.7 °F 14.0 °F 86% 30.23 in 10.0 mi NNW 4.6 mph - N/A   Clear
10:13 PM 17.6 °F 9.3 °F 14.0 °F 86% 30.23 in 10.0 mi NNW 5.8 mph - N/A   Clear
10:33 PM 15.8 °F 8.6 °F 12.2 °F 86% 30.23 in 10.0 mi NW 4.6 mph - N/A   Clear
10:53 PM 15.8 °F 6.1 °F 12.2 °F 86% 30.23 in 10.0 mi NW 6.9 mph - N/A   Clear
11:13 PM 15.8 °F 6.1 °F 12.2 °F 86% 30.23 in 10.0 mi NW 6.9 mph - N/A   Clear
11:34 PM 15.8 °F 6.1 °F 12.2 °F 86% 30.23 in 10.0 mi NNW 6.9 mph - N/A   Clear
11:53 PM 15.8 °F 5.1 °F 12.2 °F 86% 30.23 in 10.0 mi NNW 8.1 mph - N/A   Clear